Weather History for Warrensburg, MO

Change the Weather History Date:

Wednesday, November 21, 2012

  Actual Average (KSZL) Record (KSZL)
Temperature  
Mean Temperature 50 °F -  
Max Temperature 68 °F 51 °F 71 °F (1999)
Min Temperature 33 °F 34 °F 10 °F (2000)
Degree Days  
Heating Degree Days 14    
Moisture  
Dew Point 38 °F    
Average Humidity 67    
Maximum Humidity 100    
Minimum Humidity 33    
Precipitation  
Precipitation 0.00 in - - ()
Sea Level Pressure  
Sea Level Pressure 30.15 in    
Wind  
Wind Speed 6 mph (SSE)    
Max Wind Speed 13 mph    
Max Gust Speed 18 mph    
Visibility 8 miles    
Events Fog    
Averages and records for this station are not official NWS values.
T = Trace of Precipitation, MM = Missing Value Source: NWS Daily Summary

Daily Weather History Graph

Daily Weather History Graph

Search for Another Location

Airport:

Trip Planner

Search our weather history database for the weather conditions in past years. The results will help you decide how hot, cold, wet, or windy it might be!

Date:

Astronomy

Nov. 21, 2012 Rise Set
Actual Time 7:04 AM CST 4:57 PM CST
Civil Twilight 6:35 AM CST 5:26 PM CST
Nautical Twilight 6:03 AM CST 5:58 PM CST
Astronomical Twilight 5:31 AM CST 6:30 PM CST
Moon 1:10 PM CST (11/21) 12:28 AM CST (11/21)
Length of Visible Light 10h 50m
Length of Day
9h 52m
First Quarter, 62% of the Moon is Illuminated
Nov 21
First Quarter
Nov 28
Full
Dec 6
Last Quarter
Dec 13
New
Dec 19
First Quarter

Hourly Weather History & Observations

Time (CST) Temp. Windchill Dew Point Humidity Pressure Visibility Wind Dir Wind Speed Gust Speed Precip Events Conditions
12:15 AM 37.4 °F - 35.6 °F 93% 30.22 in 7.0 mi Calm Calm - N/A   Clear
12:35 AM 35.6 °F 30.7 °F 33.8 °F 93% 30.22 in 5.0 mi SE 5.8 mph - N/A   Clear
12:55 AM 35.6 °F 31.7 °F 33.8 °F 93% 30.22 in 5.0 mi SSE 4.6 mph - N/A   Clear
1:15 AM 33.8 °F 30.8 °F 32.0 °F 93% 30.22 in 5.0 mi South 3.5 mph - N/A   Clear
1:35 AM 35.6 °F - 33.8 °F 93% 30.22 in 7.0 mi Calm Calm - N/A   Clear
1:55 AM 35.6 °F 32.8 °F 33.8 °F 93% 30.22 in 7.0 mi SSE 3.5 mph - N/A   Clear
2:15 AM 33.8 °F 29.6 °F 33.8 °F 100% 30.22 in 7.0 mi SSE 4.6 mph - N/A   Clear
2:35 AM 33.8 °F 28.6 °F 32.0 °F 93% 30.22 in 5.0 mi SSE 5.8 mph - N/A   Clear
2:55 AM 33.8 °F 30.8 °F 32.0 °F 93% 30.22 in 5.0 mi South 3.5 mph - N/A   Clear
3:55 AM 35.6 °F 31.7 °F 33.8 °F 93% 30.22 in 5.0 mi South 4.6 mph - N/A   Clear
4:15 AM 33.8 °F - 32.0 °F 93% 30.22 in 4.0 mi Calm Calm - N/A   Clear
4:35 AM 35.6 °F 32.8 °F 33.8 °F 93% 30.22 in 4.0 mi South 3.5 mph - N/A   Clear
4:55 AM 33.8 °F 29.6 °F 32.0 °F 93% 30.22 in 5.0 mi South 4.6 mph - N/A   Clear
5:15 AM 35.6 °F 31.7 °F 33.8 °F 93% 30.22 in 5.0 mi South 4.6 mph - N/A   Clear
5:35 AM 35.6 °F 31.7 °F 33.8 °F 93% 30.22 in 4.0 mi South 4.6 mph - N/A   Clear
5:55 AM 35.6 °F 32.8 °F 33.8 °F 93% 30.22 in 3.0 mi South 3.5 mph - N/A   Clear
6:15 AM 35.6 °F 30.7 °F 33.8 °F 93% 30.22 in 2.5 mi SSE 5.8 mph - N/A   Clear
6:35 AM 35.6 °F 32.8 °F 33.8 °F 93% 30.22 in 1.8 mi South 3.5 mph - N/A   Mist
6:55 AM 35.6 °F 31.7 °F 35.6 °F 100% 30.22 in 0.8 mi SSW 4.6 mph - N/A   Mist
7:15 AM 37.4 °F 34.9 °F 37.4 °F 100% 30.22 in - South 3.5 mph - N/A   Unknown
7:35 AM 37.4 °F 33.8 °F 35.6 °F 93% 30.23 in 0.5 mi South 4.6 mph - N/A Fog Fog
7:55 AM 37.4 °F 32.1 °F 35.6 °F 93% 30.23 in 0.2 mi South 6.9 mph - N/A Fog Fog
8:15 AM 39.2 °F 35.9 °F 37.4 °F 93% 30.23 in 4.0 mi South 4.6 mph - N/A   Clear
8:35 AM 42.8 °F 39.3 °F 41.0 °F 93% 30.23 in 7.0 mi South 5.8 mph - N/A   Clear
8:55 AM 44.6 °F 40.7 °F 42.8 °F 93% 30.23 in 7.0 mi South 6.9 mph - N/A   Clear
9:15 AM 50.0 °F - 44.6 °F 82% 30.23 in 10.0 mi South 4.6 mph - N/A   Clear
9:35 AM 51.8 °F - 44.6 °F 76% 30.24 in 10.0 mi SSE 10.4 mph - N/A   Clear
9:55 AM 53.6 °F - 44.6 °F 72% 30.24 in 10.0 mi SSE 10.4 mph - N/A   Clear
10:15 AM 53.6 °F - 44.6 °F 72% 30.24 in 10.0 mi South 10.4 mph - N/A   Clear
10:35 AM 55.4 °F - 44.6 °F 67% 30.23 in 10.0 mi South 8.1 mph - N/A   Clear
10:55 AM 59.0 °F - 44.6 °F 59% 30.23 in 10.0 mi South 9.2 mph - N/A   Clear
11:15 AM 59.0 °F - 42.8 °F 55% 30.22 in 10.0 mi South 9.2 mph - N/A   Clear
11:55 AM 62.6 °F - 44.6 °F 52% 30.20 in 10.0 mi South 9.2 mph - N/A   Clear
12:15 PM 62.6 °F - 42.8 °F 48% 30.18 in 10.0 mi South 9.2 mph - N/A   Clear
12:35 PM 64.4 °F - 42.8 °F 45% 30.17 in 10.0 mi South 9.2 mph - N/A   Clear
12:55 PM 66.2 °F - 41.0 °F 40% 30.16 in 10.0 mi South 11.5 mph - N/A   Clear
1:15 PM 66.2 °F - 39.2 °F 37% 30.15 in 10.0 mi South 12.7 mph - N/A   Clear
1:35 PM 68.0 °F - 39.2 °F 35% 30.14 in 10.0 mi South 10.4 mph 16.1 mph N/A   Clear
1:55 PM 68.0 °F - 37.4 °F 33% 30.13 in 10.0 mi South 9.2 mph - N/A   Clear
2:15 PM 68.0 °F - 39.2 °F 35% 30.13 in 10.0 mi South 12.7 mph - N/A   Clear
2:35 PM 68.0 °F - 41.0 °F 37% 30.12 in 10.0 mi SSE 10.4 mph 18.4 mph N/A   Clear
2:55 PM 68.0 °F - 39.2 °F 35% 30.11 in 10.0 mi South 10.4 mph - N/A   Clear
3:15 PM 68.0 °F - 39.2 °F 35% 30.11 in 10.0 mi South 8.1 mph 16.1 mph N/A   Clear
3:35 PM 68.0 °F - 37.4 °F 33% 30.11 in 10.0 mi South 10.4 mph - N/A   Clear
3:55 PM 66.2 °F - 37.4 °F 35% 30.10 in 10.0 mi South 8.1 mph - N/A   Clear
4:15 PM 64.4 °F - 37.4 °F 37% 30.10 in 10.0 mi SSE 8.1 mph - N/A   Clear
4:35 PM 62.6 °F - 39.2 °F 42% 30.09 in 10.0 mi SSE 5.8 mph - N/A   Clear
4:55 PM 59.0 °F - 37.4 °F 45% 30.08 in 10.0 mi SE 6.9 mph - N/A   Clear
5:15 PM 57.2 °F - 39.2 °F 51% 30.08 in 10.0 mi SE 5.8 mph - N/A   Clear
5:55 PM 55.4 °F - 39.2 °F 54% 30.08 in 10.0 mi SE 8.1 mph - N/A   Clear
6:15 PM 53.6 °F - 41.0 °F 62% 30.08 in 10.0 mi SSE 8.1 mph - N/A   Clear
6:35 PM 55.4 °F - 39.2 °F 54% 30.08 in 10.0 mi SSE 8.1 mph - N/A   Clear
6:55 PM 55.4 °F - 39.2 °F 54% 30.08 in 10.0 mi SSE 9.2 mph - N/A   Clear
7:15 PM 55.4 °F - 39.2 °F 54% 30.07 in 10.0 mi SSE 9.2 mph - N/A   Clear
7:35 PM 53.6 °F - 37.4 °F 54% 30.07 in 10.0 mi SSE 8.1 mph - N/A   Clear
7:55 PM 53.6 °F - 37.4 °F 54% 30.06 in 10.0 mi SSE 8.1 mph - N/A   Clear
8:15 PM 53.6 °F - 37.4 °F 54% 30.06 in 10.0 mi SSE 9.2 mph - N/A   Clear
8:35 PM 53.6 °F - 37.4 °F 54% 30.05 in 10.0 mi SSE 9.2 mph - N/A   Clear
8:55 PM 53.6 °F - 37.4 °F 54% 30.05 in 10.0 mi SSE 9.2 mph - N/A   Clear
9:15 PM 53.6 °F - 37.4 °F 54% 30.05 in 10.0 mi SSE 9.2 mph - N/A   Clear
9:35 PM 53.6 °F - 35.6 °F 51% 30.05 in 10.0 mi SSE 10.4 mph - N/A   Clear
9:55 PM 53.6 °F - 35.6 °F 51% 30.05 in 10.0 mi SSE 8.1 mph - N/A   Clear
10:15 PM 51.8 °F - 35.6 °F 54% 30.04 in 10.0 mi SSE 9.2 mph - N/A   Clear
10:35 PM 51.8 °F - 35.6 °F 54% 30.03 in 10.0 mi South 8.1 mph - N/A   Clear
10:55 PM 51.8 °F - 35.6 °F 54% 30.03 in 10.0 mi South 6.9 mph - N/A   Clear
11:15 PM 51.8 °F - 35.6 °F 54% 30.03 in 10.0 mi South 5.8 mph - N/A   Clear
11:35 PM 51.8 °F - 35.6 °F 54% 30.02 in 10.0 mi SSE 8.1 mph - N/A   Clear
11:55 PM 51.8 °F - 35.6 °F 54% 30.02 in 10.0 mi SSE 8.1 mph - N/A   Clear